[[{"header":{"parameterUnit":"m.s-1","parameterCategory":1,"la1":30.2991,"la2":30.254,"lo1":-89.0895,"lo2":-89.0444,"dx":0.0017,"dy":0.0017,"nx":28,"ny":28,"refTime":"2022-12-05T15:00:00:Z","depth":0,"parameterNumber":2,"parameterNumberName":"U-component_of_WINDS"},"data":[0,0,0,0,0,0,0,0,0,0,0,0,0,0,0,0,0,0,0,0,0,0,0,0,0,0,0,0,0,0,0,0,0,0,0,0,0,0,0,0,0,0,0,0,0,0,0,0,0,0,0,0,0,0,0,0,0,0,-1.9292,-1.9292,0,-1.9294,-1.9294,-1.9294,-1.9267,-1.9266,-1.9265,-1.9264,-1.9266,-1.9267,-1.9267,0,0,0,0,0,0,0,0,0,0,0,0,0,-1.9265,-1.9266,-1.9292,-1.9292,-1.9292,-1.9294,-1.9294,-1.9294,-1.9267,-1.9266,-1.9265,-1.9264,-1.9266,-1.9267,-1.9267,0,0,0,0,0,0,0,0,0,0,0,0,0,-1.9273,-1.9266,-1.9292,-1.9279,-1.9278,-1.9294,-1.9294,-1.9294,-1.9267,-1.9266,-1.9265,-1.9264,-1.9265,-1.9266,-1.9268,-1.9297,0,0,-1.9271,-1.9271,0,0,0,0,0,0,0,0,-1.9272,-1.9274,-1.9281,-1.928,-1.9279,-1.9279,-1.9285,-1.9295,-1.9267,-1.9271,-1.9264,-1.9263,-1.9271,-1.9272,-1.9274,-1.9297,-1.9297,-1.9271,-1.9272,-1.9272,-1.9272,0,0,0,0,0,0,0,-1.9272,-1.9274,-1.9293,-1.9281,-1.928,-1.9273,-1.9273,-1.9287,-1.9277,-1.9271,-1.9269,-1.9269,-1.927,-1.9273,-1.9274,-1.9297,-1.9271,-1.9272,-1.9273,-1.9273,-1.9342,-1.9343,0,0,0,0,0,0,-1.9273,-1.9273,-1.9293,-1.9293,-1.9273,-1.9274,-1.9274,-1.928,-1.9277,-1.9276,-1.927,-1.9268,-1.9272,-1.9273,-1.9274,-1.9307,-1.9272,-1.9273,-1.9274,-1.9341,-1.9342,-1.9344,0,0,0,0,0,0,-1.9273,-1.9275,-1.9293,-1.9283,-1.9284,-1.9276,-1.9283,-1.9281,-1.9284,-1.9277,-1.9275,-1.9275,-1.9271,-1.9273,-1.9291,-1.9307,-1.9274,-1.9275,-1.934,-1.9341,-1.9343,-1.9374,0,0,0,0,0,0,-1.9272,-1.9275,-1.9286,-1.9283,-1.9285,-1.931,-1.9284,-1.9281,-1.9286,-1.9283,-1.9281,-1.9279,-1.9271,-1.929,-1.9292,-1.9308,-1.9275,-1.9338,-1.934,-1.9342,-1.9371,-1.9376,-1.9381,0,0,0,0,0,-1.9271,-1.9295,-1.9287,-1.9289,-1.9298,-1.9311,-1.9312,-1.9301,-1.9287,-1.9298,-1.9293,-1.928,-1.9305,-1.9292,-1.9294,-1.931,-1.9337,-1.934,-1.9342,-1.9369,-1.9375,-1.9381,0,0,0,0,0,0,-1.93,-1.9294,-1.9285,-1.9309,-1.931,-1.9306,-1.9319,-1.9308,-1.9314,-1.9311,-1.9297,-1.9297,-1.9317,-1.9316,-1.9301,-1.9338,-1.9319,-1.9322,-1.9338,-1.9344,-1.9348,-1.9348,-1.9276,0,0,0,0,0,-1.9309,-1.9319,-1.9314,-1.9335,-1.9336,-1.9328,-1.9333,-1.9324,-1.9325,-1.9326,-1.9323,-1.9325,-1.9333,-1.9338,-1.9346,-1.9371,-1.937,-1.9384,-1.9389,-1.9393,-1.9395,-1.9408,-1.9413,-1.9352,-1.9352,-1.9352,0,0,-1.9327,-1.9326,-1.9333,-1.9341,-1.9341,-1.9352,-1.9328,-1.9341,-1.9349,-1.9328,-1.9345,-1.9343,-1.9344,-1.9366,-1.9375,-1.9365,-1.9412,-1.9396,-1.9399,-1.9399,-1.9411,-1.9417,-1.9422,-1.9354,-1.9354,-1.9354,0,0,-1.9367,-1.9367,-1.9384,-1.9385,-1.9386,-1.938,-1.9384,-1.9382,-1.938,-1.9396,-1.9381,-1.939,-1.9405,-1.9406,-1.9408,-1.9449,-1.9436,-1.9452,-1.9476,-1.9488,-1.9493,-1.9497,-1.951,-1.9515,-1.9454,-1.9455,-1.9455,0,-1.9389,-1.9405,-1.9394,-1.9408,-1.9411,-1.9393,-1.941,-1.9412,-1.9415,-1.9418,-1.9407,-1.9425,-1.9424,-1.9446,-1.9455,-1.9459,-1.9462,-1.9451,-1.9493,-1.9497,-1.9501,-1.9513,-1.9519,-1.9456,-1.9456,-1.9456,-1.9456,0,-1.9433,-1.9444,-1.9458,-1.9461,-1.9467,-1.9482,-1.9473,-1.948,-1.9471,-1.9467,-1.9484,-1.9483,-1.9489,-1.9494,-1.9486,-1.9514,-1.9508,-1.9496,-1.9475,-1.9509,-1.952,-1.9525,-1.9459,-1.9458,-1.9458,-1.9457,0,0,-1.9489,-1.9486,-1.9491,-1.9493,-1.9493,-1.9501,-1.9516,-1.9522,-1.9527,-1.9531,-1.9542,-1.9555,-1.9543,-1.9546,-1.9538,-1.955,-1.958,-1.9535,-1.9535,-1.9543,-1.961,-1.9619,-1.9625,-1.9573,-1.9573,-1.9574,-1.961,0,-1.9526,-1.955,-1.9541,-1.9566,-1.9575,-1.9559,-1.9572,-1.9573,-1.9569,-1.9577,-1.9573,-1.9582,-1.9567,-1.9568,-1.9579,-1.9574,-1.9593,-1.9572,-1.9582,-1.9583,-1.9581,-1.9631,-1.964,-1.9674,-1.9614,-1.9615,-1.9616,0,-1.9572,-1.9577,-1.9603,-1.9601,-1.9604,-1.9616,-1.9621,-1.9629,-1.963,-1.9626,-1.963,-1.962,-1.9633,-1.9615,-1.9633,-1.9619,-1.9622,-1.9621,-1.9622,-1.9621,-1.96,-1.963,-1.9684,-1.9689,-1.9623,-1.9622,-1.9622,0,-1.9609,-1.9622,-1.9639,-1.9641,-1.9639,-1.9647,-1.9647,-1.9647,-1.9651,-1.9656,-1.9659,-1.9665,-1.9668,-1.9673,-1.9665,-1.9652,-1.9684,-1.9665,-1.9681,-1.9681,-1.9687,-1.9687,-1.9741,-1.9692,-1.9692,-1.9692,-1.9692,0,-1.965,-1.9666,-1.9655,-1.9665,-1.9683,-1.9672,-1.969,-1.9688,-1.9688,-1.9698,-1.9685,-1.9694,-1.9683,-1.9691,-1.9684,-1.97,-1.9702,-1.9699,-1.9697,-1.97,-1.97,-1.9701,-1.9698,-1.9693,-1.9693,-1.9693,-1.9693,0,-1.9693,-1.9687,-1.9704,-1.9701,-1.9701,-1.9714,-1.9711,-1.972,-1.9716,-1.9728,-1.9731,-1.9724,-1.9733,-1.9725,-1.9734,-1.973,-1.975,-1.9745,-1.975,-1.9748,-1.9764,-1.9762,-1.982,-1.9826,-1.9775,-1.9775,-1.9776,0,-1.9719,-1.9731,-1.973,-1.9735,-1.9736,-1.9745,-1.9749,-1.974,-1.9745,-1.9747,-1.9756,-1.9764,-1.9769,-1.9784,-1.978,-1.9786,-1.9781,-1.9801,-1.9781,-1.9783,-1.9779,-1.9778,-1.9779,-1.9804,-1.9804,-1.9805,-1.9805,0,-1.9766,-1.9762,-1.9769,-1.9775,-1.978,-1.9785,-1.9788,-1.9793,-1.9783,-1.9789,-1.9798,-1.9803,-1.9811,-1.9819,-1.9824,-1.9824,-1.9813,-1.9812,-1.9816,-1.9817,-1.9819,-1.9817,-1.9759,-1.981,-1.981,-1.9809,-1.9809,-1.9809,-1.98,-1.981,-1.981,-1.9818,-1.982,-1.9823,-1.9831,-1.9828,-1.9836,-1.9842,-1.9836,-1.9846,-1.9847,-1.9853,-1.9854,-1.9862,-1.9854,-1.986,-1.9861,-1.9862,-1.9864,-1.9819,-1.9863,-1.9863,-1.9863,-1.9863,-1.9863,0,-1.9845,-1.9845,-1.9852,-1.9857,-1.9863,-1.9853,-1.9856,-1.9862,-1.9871,-1.9873,-1.9879,-1.9889,-1.9896,-1.9893,-1.9899,-1.9906,-1.9901,-1.9908,-1.9907,-1.9906,-1.9871,-1.9867,-1.9912,-1.9912,-1.9912,-1.9912,-1.9912,-1.9912,-1.9869,-1.9885,-1.9881,-1.9897,-1.9896,-1.9906,-1.9909,-1.9912,-1.9913,-1.9924,-1.9931,-1.9929,-1.9928,-1.9934,-1.9941,-1.994,-1.9942,-1.995,-1.9947,-1.9914,-1.9909,-1.9904,-1.99,-1.9951,-1.9951,-1.9981,-1.9982,-1.9982]},{"header":{"parameterUnit":"m.s-1","parameterCategory":1,"la1":30.2991,"la2":30.254,"lo1":-89.0895,"lo2":-89.0444,"dx":0.0017,"dy":0.0017,"nx":28,"ny":28,"refTime":"2022-12-05T15:00:00:Z","depth":0,"parameterNumber":3,"parameterNumberName":"V-component_of_WINDS"},"data":[0,0,0,0,0,0,0,0,0,0,0,0,0,0,0,0,0,0,0,0,0,0,0,0,0,0,0,0,0,0,0,0,0,0,0,0,0,0,0,0,0,0,0,0,0,0,0,0,0,0,0,0,0,0,0,0,0,0,2.3928,2.3928,0,2.3917,2.3917,2.3917,2.3905,2.3905,2.3904,2.3904,2.3889,2.3889,2.3889,0,0,0,0,0,0,0,0,0,0,0,0,0,2.3937,2.3937,2.3928,2.3928,2.3928,2.3917,2.3917,2.3917,2.3905,2.3905,2.3904,2.3904,2.3889,2.3889,2.3889,0,0,0,0,0,0,0,0,0,0,0,0,0,2.393,2.3937,2.3928,2.3921,2.392,2.3917,2.3917,2.3917,2.3905,2.3905,2.3904,2.3904,2.3889,2.3889,2.3889,2.3891,0,0,2.3887,2.3887,0,0,0,0,0,0,0,0,2.3931,2.393,2.3922,2.3921,2.392,2.3912,2.3914,2.3908,2.3905,2.391,2.3904,2.3904,2.3897,2.3896,2.3894,2.389,2.389,2.3887,2.3887,2.3887,2.3887,0,0,0,0,0,0,0,2.3931,2.393,2.3924,2.3922,2.3921,2.3917,2.3916,2.3913,2.3905,2.391,2.3909,2.3908,2.3896,2.3894,2.3894,2.3889,2.3887,2.3887,2.3887,2.3887,2.3889,2.3889,0,0,0,0,0,0,2.3933,2.3931,2.3924,2.3923,2.3925,2.3917,2.3916,2.3915,2.3905,2.3903,2.3908,2.3908,2.3895,2.3894,2.3893,2.3896,2.3887,2.3887,2.3886,2.3888,2.3889,2.3889,0,0,0,0,0,0,2.3934,2.3933,2.3924,2.3927,2.3926,2.3917,2.3916,2.3915,2.3913,2.3904,2.3902,2.3908,2.3895,2.3893,2.3892,2.3896,2.3886,2.3886,2.3888,2.3889,2.3889,2.3903,0,0,0,0,0,0,2.3934,2.3933,2.3934,2.3927,2.3926,2.3925,2.3917,2.3915,2.3913,2.3912,2.3903,2.3901,2.3895,2.3893,2.3892,2.3895,2.3886,2.3888,2.3888,2.3889,2.3902,2.3903,2.3905,0,0,0,0,0,2.3934,2.3937,2.3934,2.3933,2.3927,2.3925,2.3924,2.3917,2.3913,2.3914,2.3909,2.3902,2.3896,2.3893,2.3892,2.3895,2.3887,2.3888,2.3889,2.3901,2.3903,2.3905,0,0,0,0,0,0,2.3943,2.3936,2.3933,2.3934,2.393,2.3923,2.3924,2.3919,2.3915,2.3914,2.3905,2.3903,2.3903,2.3899,2.3896,2.3897,2.3891,2.3891,2.39,2.3902,2.3904,2.3905,2.3885,0,0,0,0,0,2.3945,2.3945,2.3938,2.394,2.3939,2.3932,2.393,2.3926,2.3921,2.3919,2.3913,2.3908,2.3905,2.3903,2.39,2.3901,2.39,2.3903,2.3904,2.3905,2.3906,2.3908,2.391,2.3891,2.3891,2.3891,0,0,2.3949,2.3946,2.3946,2.3942,2.3938,2.3938,2.393,2.3929,2.3929,2.3918,2.3918,2.3913,2.3907,2.3908,2.3907,2.3904,2.3911,2.3906,2.3907,2.3907,2.3909,2.391,2.3912,2.3892,2.3892,2.3891,0,0,2.3957,2.3954,2.3956,2.3953,2.3949,2.3945,2.3945,2.3939,2.3937,2.3936,2.3929,2.3927,2.3922,2.3919,2.3916,2.3925,2.3919,2.3924,2.3932,2.3934,2.3935,2.3937,2.3941,2.3943,2.3925,2.3925,2.3925,0,2.3963,2.3963,2.3957,2.3958,2.3956,2.3949,2.3951,2.3948,2.3942,2.3941,2.3938,2.3933,2.3928,2.3928,2.3931,2.3928,2.3929,2.3925,2.3936,2.3937,2.3938,2.3942,2.3944,2.3925,2.3925,2.3925,2.3925,0,2.397,2.397,2.3972,2.3969,2.3968,2.3969,2.3963,2.3963,2.3959,2.3955,2.3955,2.3949,2.3945,2.3945,2.394,2.3945,2.3943,2.3938,2.3931,2.3941,2.3945,2.3946,2.3926,2.3926,2.3926,2.3926,0,0,2.3981,2.3977,2.3978,2.3978,2.3973,2.3973,2.3974,2.3972,2.3973,2.3969,2.397,2.3967,2.3963,2.396,2.3955,2.3956,2.3966,2.3951,2.3951,2.3955,2.3972,2.3977,2.3979,2.3962,2.3962,2.3962,2.3973,0,2.3989,2.3992,2.3988,2.3991,2.3992,2.3986,2.3987,2.3984,2.3981,2.3981,2.3976,2.3975,2.3969,2.3968,2.3969,2.3964,2.3969,2.3963,2.3963,2.3963,2.3965,2.3981,2.3985,2.3996,2.3975,2.3975,2.3975,0,2.3998,2.3997,2.4002,2.3999,2.3999,2.4001,2.4,2.3999,2.3996,2.3994,2.3993,2.3987,2.3988,2.3982,2.3983,2.3979,2.3979,2.3976,2.3977,2.3977,2.397,2.3982,2.3999,2.4001,2.3977,2.3977,2.3977,0,2.4007,2.4007,2.4011,2.401,2.4007,2.4008,2.4007,2.4004,2.4004,2.4003,2.4003,2.4001,2.4,2.3999,2.3993,2.3989,2.3996,2.3988,2.3994,2.3994,2.3995,2.3995,2.4014,2.3994,2.3994,2.3994,2.3994,0,2.4016,2.4019,2.4015,2.4017,2.4021,2.4016,2.4019,2.4017,2.4015,2.4017,2.401,2.4011,2.4004,2.4004,2.4,2.4003,2.4002,2.4,2.3999,2.4001,2.4001,2.4,2.4,2.3994,2.3994,2.3994,2.3994,0,2.4027,2.4024,2.4027,2.4025,2.4025,2.4028,2.4026,2.4027,2.4025,2.4027,2.4027,2.4022,2.4022,2.4017,2.4015,2.4013,2.4017,2.4014,2.4019,2.4018,2.4025,2.4025,2.4043,2.4046,2.4024,2.4024,2.4025,0,2.4033,2.4035,2.4034,2.4036,2.4036,2.4037,2.4038,2.4034,2.4034,2.4033,2.4035,2.4035,2.4035,2.4036,2.4032,2.4032,2.4029,2.4036,2.4029,2.4032,2.403,2.4031,2.4032,2.4037,2.4037,2.4038,2.4038,0,2.4044,2.4043,2.4045,2.4047,2.4048,2.4049,2.4049,2.405,2.4046,2.4047,2.4049,2.4049,2.4049,2.405,2.4049,2.4047,2.4042,2.404,2.4042,2.4044,2.4047,2.4047,2.4024,2.404,2.404,2.4039,2.4039,2.4039,2.4053,2.4056,2.4057,2.4059,2.406,2.4061,2.4063,2.4062,2.4063,2.4064,2.4061,2.4064,2.4063,2.4061,2.406,2.4062,2.4058,2.406,2.406,2.4061,2.4063,2.4047,2.4061,2.4061,2.4061,2.4061,2.4061,0,2.4065,2.4066,2.4068,2.407,2.4073,2.407,2.407,2.4072,2.4075,2.4075,2.4076,2.4079,2.408,2.4077,2.4078,2.408,2.4078,2.408,2.408,2.408,2.4065,2.4065,2.4082,2.4082,2.4082,2.4082,2.4082,2.4082,2.4071,2.4077,2.4077,2.4082,2.4083,2.4087,2.4087,2.4089,2.4089,2.4093,2.4095,2.4093,2.4092,2.4094,2.4095,2.4094,2.4095,2.4098,2.4097,2.4083,2.4081,2.4079,2.4078,2.4099,2.4099,2.4112,2.4112,2.4112]}]]